Flag for Ukraine Weather past 2 weeks in Odesa, Ukraine

Now
48 °F

Sunny.


Feels Like: 45 °F
Forecast: 37 / 41 °F
Wind: 8 mph from Northwest

Location: Odesa Airport

Current Time: Dec 25, 2014 at 3:37:15 PM

Latest Report: Dec 25, 2014 at 3:00 PM


Visibility: 10 mi

Pressure: 29.95 "Hg

Humidity: 58%

Dew point: 34 °F

Location of OdesaLocation

Historic Weather in Odesa — Graph

°F

Odesa temperature yesterday

Maximum temperature yesterday: 57 °F (at 12:30 PM)
Minimum temperature yesterday: 39 °F (at 11:30 PM)
Average temperature yesterday: 49 °F

Past Weeks' High & Low Weather Summary

 TemperatureHumidityPressure
High57 °F (Dec 24, 12:30 PM)100% (Dec 10, 7:30 PM)30.27 "Hg (Dec 10, 7:30 PM)
Low27 °F (Dec 12, 10:00 PM)50% (Dec 25, 11:00 AM)29.77 "Hg (Dec 23, 5:00 AM)
Average39 °F89%30.05 "Hg
* Reported Dec 10 2:00 PM — Dec 25 2:30 PM, Odesa, Weather by CustomWeather, © 2014

Note: Actual official high and low records may vary slightly from our data, if they occured in-between our weather recording intervals... More about our weather records

Advertising

Odesa weather history for previous 24 hours

 ConditionsComfort  
Time TempWeatherWind HumidityBarometerVisibility
2:30 PM
Dec 25
50 °FSunny.10 mph54%29.95 "Hg10 mi
2:00 PM52 °FPassing clouds.8 mph54%29.92 "HgN/A
1:30 PM52 °FSunny.13 mph54%29.92 "Hg10 mi
1:00 PM52 °FSunny.13 mph54%29.92 "Hg10 mi
12:30 PM50 °FSunny.8 mph54%29.92 "Hg10 mi
12:00 PM50 °FSunny.8 mph50%29.92 "Hg10 mi
11:30 AM48 °FSunny.8 mph50%29.95 "Hg10 mi
11:00 AM48 °FPassing clouds.6 mph50%29.95 "HgN/A
10:30 AM46 °FSunny.8 mph53%29.95 "Hg10 mi
10:00 AM43 °FPassing clouds.3 mph61%29.95 "HgN/A
9:30 AM39 °FSunny.3 mph70%29.92 "Hg10 mi
9:00 AM37 °FSunny.No wind81%29.92 "Hg10 mi
8:30 AM34 °FSunny.No wind87%29.92 "Hg10 mi
8:00 AM32 °FSunny.3 mph87%29.92 "Hg10 mi
7:30 AM32 °FClear.1 mph87%29.89 "Hg10 mi
7:00 AM34 °FClear.6 mph87%29.92 "Hg10 mi
6:30 AM36 °FClear.No wind81%29.89 "Hg10 mi
6:00 AM34 °FClear.6 mph87%29.89 "Hg10 mi
5:30 AM36 °FClear.6 mph81%29.89 "Hg10 mi
5:00 AM34 °FClear.No wind81%29.89 "Hg10 mi
4:30 AM37 °FClear.No wind75%29.89 "Hg10 mi
4:00 AM36 °FClear.3 mph81%29.92 "Hg10 mi
3:30 AM36 °FClear.No wind81%29.92 "Hg10 mi
3:00 AM37 °FClear.No wind75%29.92 "Hg10 mi
2:30 AM37 °FClear.3 mph81%29.95 "Hg10 mi
2:00 AM37 °FClear.6 mph81%29.95 "Hg10 mi
1:30 AM39 °FClear.3 mph81%29.95 "Hg10 mi
1:00 AM39 °FClear.6 mph81%29.95 "Hg10 mi
12:30 AM41 °FClear.6 mph76%29.95 "Hg10 mi
12:00 AM41 °FClear.No wind76%29.95 "Hg10 mi
11:30 PM
Dec 24
39 °FClear.1 mph81%29.95 "Hg10 mi
11:00 PM41 °FClear.6 mph81%29.98 "Hg10 mi
10:30 PM41 °FClear.3 mph81%29.98 "Hg10 mi
10:00 PM43 °FClear.6 mph76%29.98 "Hg10 mi
9:30 PM43 °FClear.6 mph76%29.98 "Hg10 mi
9:00 PM43 °FClear.6 mph81%30.01 "Hg10 mi
8:30 PM43 °FClear.3 mph76%30.01 "Hg10 mi
8:00 PM43 °FClear.6 mph81%30.01 "Hg10 mi
7:30 PM43 °FClear.3 mph81%30.01 "Hg10 mi
7:00 PM46 °FClear.3 mph71%30.01 "Hg10 mi
6:30 PM46 °FClear.6 mph71%30.01 "Hg10 mi
6:00 PM46 °FClear.6 mph71%30.01 "Hg10 mi
5:30 PM48 °FClear.6 mph66%30.01 "Hg10 mi
5:00 PM50 °FPassing clouds.6 mph62%30.01 "HgN/A
4:30 PM50 °FClear.6 mph62%30.01 "Hg10 mi
4:00 PM52 °FSunny.6 mph62%30.01 "Hg10 mi
3:30 PM54 °FSunny.10 mph58%30.01 "Hg10 mi
3:00 PM55 °FSunny.13 mph55%30.01 "Hg10 mi
Weather by CustomWeather, © 2014

See weather overviewHow to use our weather pages